Flag for U.S.A. Weather past 2 weeks in Chinle, Arizona, U.S.A.

Now
59 °F

Overcast.


Feels Like: 59 °F
Forecast: 55 / 79 °F
Wind: No wind

Location: Window Rock Airport

Current Time: Sep 5, 2015 at 8:31:24 AM

Latest Report: Sep 5, 2015 at 7:53 AM


Visibility: 10 mi

Pressure: 29.95 "Hg (24.54 "Hg at 1678m altitude)

Humidity: 87%

Dew point: 55 °F

Location of ChinleLocation

Historic Weather in Chinle — Graph

°F

Chinle temperature yesterday

Maximum temperature yesterday: 72 °F (at 12:53 PM)
Minimum temperature yesterday: 56 °F (at 4:53 AM)
Average temperature yesterday: 62 °F

Past Weeks' High & Low Weather Summary

 TemperatureHumidityPressure
High90 °F (Aug 29, 2:53 PM)90% (Aug 26, 11:53 PM)30.13 "Hg (Aug 26, 11:53 PM)
Low47 °F (Aug 29, 6:53 AM)16% (Aug 24, 5:53 PM)29.73 "Hg (Aug 21, 3:53 PM)
Average67 °F56%29.93 "Hg
* Reported Aug 21 6:53 AM — Sep 5 6:53 AM, Chinle, Weather by CustomWeather, © 2015

Note: Actual official high and low records may vary slightly from our data, if they occured in-between our weather recording intervals... More about our weather records

Advertising

Chinle weather history for previous 24 hours

 ConditionsComfort  
Time TempWeatherWind HumidityBarometerVisibility
6:53 AM
Sat, Sep 5
57 °FPassing clouds.No wind87%29.91 "Hg10 mi
5:53 AM59 °FMostly cloudy.No wind81%29.89 "Hg10 mi
4:53 AM60 °FOvercast.No wind78%29.90 "Hg10 mi
3:53 AM59 °FMostly cloudy.5 mph81%29.91 "Hg10 mi
2:53 AM60 °FPassing clouds.6 mph78%29.89 "Hg10 mi
1:53 AM61 °FPassing clouds.7 mph75%29.86 "Hg10 mi
12:53 AM61 °FOvercast.9 mph75%29.85 "Hg10 mi
11:53 PM
Fri, Sep 4
61 °FClear.10 mph72%29.86 "Hg10 mi
10:53 PM62 °FPassing clouds.9 mph65%29.85 "Hg10 mi
9:53 PM61 °FOvercast.6 mph67%29.88 "Hg10 mi
8:53 PM61 °FOvercast.7 mph65%29.87 "Hg10 mi
7:53 PM63 °FOvercast.7 mph73%29.85 "Hg10 mi
6:53 PM64 °FSunny.6 mph70%29.84 "Hg10 mi
5:53 PM66 °FSunny.3 mph70%29.83 "Hg10 mi
4:53 PM65 °FScattered clouds.No wind73%29.84 "Hg10 mi
3:53 PM62 °FLight rain. Overcast.5 mph78%29.86 "Hg10 mi
2:53 PM66 °FLight rain. Mostly cloudy.6 mph73%29.84 "Hg3 mi
1:53 PM69 °FCloudy.8 mph51%29.84 "Hg10 mi
12:53 PM72 °FPartly sunny.6 mph49%29.83 "Hg10 mi
11:53 AM69 °FMostly cloudy.6 mph55%29.85 "Hg10 mi
10:53 AM69 °FOvercast.No wind61%29.87 "Hg10 mi
9:53 AM62 °FMore clouds than sun.No wind75%29.89 "Hg10 mi
8:53 AM59 °FMostly cloudy.No wind84%29.89 "Hg10 mi
Weather by CustomWeather, © 2015

See weather overviewHow to use our weather pages